Find Starlink 30392

NORAD ID: 57855 Int'l Des: 2023-141 Owner: SPXS Country: US Constellation: starlink operational
LEOCIRCULAR

当前视图

正在加载3D地球...

About Starlink 30392

Starlink 30392 (NORAD 57855) is a starlink constellation satellite (v2 mini) launched Sep 12, 2023 by SPXS of US. It operates in LEO, CIRCULAR orbit with a mass of 730.00 kg.

即将过境

Passes for default location (London). Set your location on the main map for personalized predictions.

高度历史

Loading altitude history...

两行轨道根数

1 57855U 23141R 26263.85772437 .00000077 00000-0 13420-4 0 9991
2 57855 53.1594 95.8475 0001237 87.3315 272.7829 15.34384821170236
Epoch: Sep 20, 2026 • Age: 25 hours

当前状态

高度 468.3 km
远地点 / 近地点 N/A
速度 7.64 km/s
星下点 52.58°N, 137.1°W
发射日期 Sep 12, 2023
运行时间 3 years
类型 internet

技术详情

分类 Payload
质量 730.00 kg
干质量 700.00 kg
长度 0.30 m
跨度 29.00 m
形状 ? Box + pan
制造商 SPXS
平台类型 Starlink V2M
阶段状态 In Orbit
所有者/国家 SPXS/US

Most Searched